星链-2523 (STARLINK-2523 )

导读

STARLINK-2523是美国太空探索技术公司(SpaceX)星链卫星互联网项目的一员,于2021年4月29日发射入轨,属于星链计划中的低轨通信卫星,旨在为全球提供高速互联网服务,是SpaceX批量部署星链星座过程中发射的卫星之一,助力全球卫星互联网组网建设。

Basic Information
目录编号:
48306
目录名称:
STARLINK-2523
国际标识:
2021-036AG
轨道中心:
EARTH
卫星名称:
星链-2523
卫星全名:
星链-2523 (STARLINK-2523 )
卫星状态:
在轨 (已飞行1961 天)
发射日期:
2021-04-29 UTC
国别 :
美国 (US)
星等 :
--
This satellite is enrolled in the Space Conjunction Data Service (SCDS) and the current flight risk assessment level is: High Risk
Orbit Information
数据来源 国际轨道数据
星历时间: 2026-09-11T12:49:52+0800
8小时前
查看轨道信息
半长轴: 6848.89km
偏心率: 0.0001154
轨道倾角: 53.158°
近地点辐角 80.562°
升交点赤经 315.703°
平近点角 279.552°
近地点: 469.962km
远地点: 471.544km
周期: 94.013分钟
每日圈数: 15.316959
Detailed Information
固有亮度:
5
最大亮度:
2.5
卫星平台:
Starlink V1.0
覆盖范围:
全球
运营商:
太空探索技术公司
运营商所在国:
美国
制造商(研发单位):
太空探索技术公司
制造商所在国:
美国
使用方式:
暂无
Satellite Introduction
星链(Starlink)计划是由太空探索技术公司(SpaceX)提出的一个巨型低轨卫星互联网星座项目,计划在2019年至2024年间在太空搭建由约1.2万颗卫星组成的“星链”网络,其中1584颗将部署在地球上空550千米处的近地轨道,并从2020年开始工作。该卫星仍在工作。
2D Orbit Map
3D Orbit Map
Orbit Altitude Analysis Chart
Orbit Inclination Analysis Chart
Orbit Comprehensive Analysis Chart
View Comprehensive Chart
Conjunction Data List
Event ID Objects TCA Miss Dist (km) Collision Risk Probability Collision Risk Index (CRI) Action
CDM_260912-111404-830606-495321
2026-09-12T
11:14:13+0000
0.406 km
远距离
3.133054E-4 高风险 0.85
CDM_260912-153404-830606-410821
2026-09-12T
15:34:20+0000
0.772 km
远距离
3.885905E-5 中风险 0.67
CDM_260912-205604-830606-323921
2026-09-12T
20:56:34+0000
1.854 km
极远距离
3.458781E-6 低风险 0.46
CDM_260912-223704-830606-410821
2026-09-12T
22:37:08+0000
1.739 km
极远距离
2.634526E-6 低风险 0.43
CDM_260913-001104-830606-410821
2026-09-13T
00:11:06+0000
2.222 km
极远距离
1.435393E-6 低风险 0.38
CDM_260912-084804-830606-969222
2026-09-12T
08:48:41+0000
2.912 km
极远距离
1.366298E-6 低风险 0.38
CDM_260912-194804-830606-545521
2026-09-12T
19:48:21+0000
2.965 km
极远距离
1.343151E-6 低风险 0.38
CDM_260907-124404-283704-830622
2026-09-07T
12:44:15+0000
2.919 km
极远距离
1.213581E-6 低风险 0.37
CDM_260913-064104-830605-634021
2026-09-13T
06:41:01+0000
2.961 km
极远距离
9.820324E-7 极低风险 0.35
CDM_260912-102904-830606-565821
2026-09-12T
10:29:58+0000
2.872 km
极远距离
8.476418E-7 极低风险 0.34
Miss Distance Evolution Trend with All Objects
Collision Probability Evolution Trend with All Objects